TimeEDT,TemperatureF,Dew PointF,Humidity,Sea Level PressureIn,VisibilityMPH,Wind Direction,Wind SpeedMPH,Gust SpeedMPH,PrecipitationIn,Events,Conditions,WindDirDegrees,DateUTC
12:53 AM,57.0,55.9,96,30.10,9.0,South,4.6,-,N/A,,Clear,180,2013-06-23 04:53:00
1:53 AM,55.0,55.0,100,30.10,10.0,South,3.5,-,N/A,,Clear,180,2013-06-23 05:53:00
2:53 AM,53.1,53.1,100,30.10,6.0,South,3.5,-,N/A,,Clear,190,2013-06-23 06:53:00
3:53 AM,53.1,52.0,96,30.10,6.0,Calm,Calm,-,N/A,,Clear,0,2013-06-23 07:53:00
4:53 AM,52.0,51.1,97,30.10,5.0,Calm,Calm,-,N/A,,Clear,0,2013-06-23 08:53:00
5:53 AM,54.0,52.0,93,30.11,6.0,Calm,Calm,-,N/A,,Clear,0,2013-06-23 09:53:00
6:53 AM,63.0,59.0,87,30.12,6.0,Calm,Calm,-,N/A,,Clear,0,2013-06-23 10:53:00
7:53 AM,66.0,61.0,84,30.12,8.0,Calm,Calm,-,N/A,,Clear,0,2013-06-23 11:53:00
8:53 AM,71.1,62.1,73,30.11,10.0,Calm,Calm,-,N/A,,Clear,0,2013-06-23 12:53:00
9:53 AM,73.0,60.1,64,30.10,10.0,Calm,Calm,-,N/A,,Clear,0,2013-06-23 13:53:00
10:53 AM,73.9,61.0,64,30.08,10.0,Variable,3.5,-,N/A,,Scattered Clouds,0,2013-06-23 14:53:00
11:53 AM,73.0,60.1,64,30.07,10.0,SW,4.6,-,N/A,,Overcast,220,2013-06-23 15:53:00
12:53 PM,66.0,64.0,93,30.08,2.5,SSW,5.8,-,0.03,Rain,Light Rain,210,2013-06-23 16:53:00
1:07 PM,66.2,64.4,94,30.07,4.0,SSW,3.5,-,0.00,Rain,Light Rain,210,2013-06-23 17:07:00
1:27 PM,66.2,64.4,94,30.06,1.8,Calm,Calm,-,0.02,Rain,Light Rain,0,2013-06-23 17:27:00
1:36 PM,66.2,64.4,94,30.06,3.0,Calm,Calm,-,0.03,Rain,Light Rain,0,2013-06-23 17:36:00
1:53 PM,66.0,64.0,93,30.06,6.0,Calm,Calm,-,0.03,Rain,Light Rain,0,2013-06-23 17:53:00
2:13 PM,66.2,64.4,94,30.05,3.0,Calm,Calm,-,0.01,Rain,Light Rain,0,2013-06-23 18:13:00
2:21 PM,64.4,64.4,100,30.05,2.5,NNW,3.5,-,0.01,Rain,Light Rain,330,2013-06-23 18:21:00
2:24 PM,64.4,64.4,100,30.04,3.0,NNW,3.5,-,0.02,Rain,Light Rain,340,2013-06-23 18:24:00
2:38 PM,64.4,64.4,100,30.04,5.0,North,3.5,-,0.02,Rain,Light Rain,350,2013-06-23 18:38:00
2:53 PM,66.0,64.0,93,30.03,5.0,NNE,3.5,-,0.02,,Overcast,30,2013-06-23 18:53:00
3:07 PM,66.2,64.4,94,30.02,5.0,Calm,Calm,-,N/A,,Overcast,0,2013-06-23 19:07:00
3:53 PM,68.0,64.9,90,30.00,9.0,SE,3.5,-,N/A,,Overcast,140,2013-06-23 19:53:00
4:53 PM,69.1,64.9,87,29.98,9.0,Calm,Calm,-,N/A,,Overcast,0,2013-06-23 20:53:00
5:53 PM,69.1,64.9,87,29.96,8.0,Calm,Calm,-,N/A,,Overcast,0,2013-06-23 21:53:00
6:53 PM,69.1,66.0,90,29.95,7.0,Calm,Calm,-,N/A,,Overcast,0,2013-06-23 22:53:00
7:53 PM,69.1,64.9,87,29.94,6.0,South,4.6,-,N/A,,Overcast,190,2013-06-23 23:53:00
8:53 PM,66.0,64.0,93,29.94,6.0,SSW,3.5,-,N/A,,Scattered Clouds,210,2013-06-24 00:53:00
9:53 PM,66.9,64.9,93,29.93,6.0,Variable,4.6,-,N/A,,Scattered Clouds,0,2013-06-24 01:53:00
10:53 PM,64.9,64.0,97,29.92,6.0,SSW,3.5,-,N/A,,Partly Cloudy,200,2013-06-24 02:53:00
11:18 PM,64.4,64.4,100,29.91,6.0,SSW,3.5,-,N/A,,Mostly Cloudy,200,2013-06-24 03:18:00
11:37 PM,64.4,64.4,100,29.90,6.0,SSW,4.6,-,N/A,,Scattered Clouds,200,2013-06-24 03:37:00
11:53 PM,64.9,64.0,97,29.89,6.0,SSW,4.6,-,N/A,,Partly Cloudy,200,2013-06-24 03:53:00